[Iaude] MPEC F64: 2024 FZ1 [a=1.63,e=0.26,i=9.2,H=24.5]
    mpec at cfa.harvard.edu 
    mpec at cfa.harvard.edu
       
    Thu Mar 21 12:05:03 EDT 2024
    
    
  
M.P.E.C. 2024-F64                                Issued 2024 March 21, 16:03 UT
     The Minor Planet Electronic Circulars contain information on unusual
         minor planets, routine data on comets and natural satellites,
         and occasional editorial announcements.  They are published
    on behalf of Division F of the International Astronomical Union by the
          Minor Planet Center, Smithsonian Astrophysical Observatory,
                          Cambridge, MA 02138, U.S.A.
			  
             Prepared using the Tamkin Foundation Computer Network
                              MPC at CFA.HARVARD.EDU
            URL https://www.minorplanetcenter.net/    ISSN 1523-6714
                                    2024 FZ1                                    
Observations:
     K24F01Z* C2024 03 17.47768812 27 25.218-06 01 10.06         22.22wXEF064F51
     K24F01Z  C2024 03 17.49149212 27 24.209-06 01 47.15         22.18wXEF064F51
     K24F01Z  C2024 03 17.50531912 27 23.161-06 02 24.24         21.99wXEF064F51
     K24F01Z  C2024 03 17.60676412 27 15.882-06 06 54.56         21.85GVEF064F51
     K24F01Z  C2024 03 17.60758212 27 15.832-06 06 56.76         22.01GVEF064F51
     K24F01Z KC2024 03 18.36405 12 26 33.01 -06 40 50.1                VEF064291
     K24F01Z KC2024 03 18.37527 12 26 32.18 -06 41 20.4          22.2 RVEF064291
     K24F01Z KC2024 03 18.38647 12 26 31.36 -06 41 50.6          22.3 RVEF064291
     K24F01Z 1C2024 03 19.43702912 25 29.054-07 28 30.17         21.68GVEF064T12
     K24F01Z 1C2024 03 19.44105912 25 28.721-07 28 40.75         21.80GVEF064T12
Observer details:
291 LPL/Spacewatch II.  Observer M. T. Read.  Measurers M. T. Read, M. T.
    Read.  1.8-m f/2.7 reflector + CCD.
F51 Pan-STARRS 1, Haleakala.  Observers J. Herman, T. Lowe, P. Minguez, A.
    Schultz, I. Smith.  Measurers K. Chambers, T. de Boer, J. Fairlamb, H.
    Gao, M. Huber, C.-C. Lin, E. Magnier, Y. Ramanjooloo, R. Wainscoat, R.
    Weryk, J. Herman, T. Lowe, P. Minguez, A. Schultz, I. Smith.  1.8-m
    Ritchey-Chretien + CCD.
T12 University of Hawaii 88-inch telescope, Maunakea.  Observer J. Fairlamb.
    Measurers R. Weryk, J. Fairlamb, Y. Ramanjooloo, R. Wainscoat, J.
    Fairlamb.  2.24-m f/10.1 reflector + CCD.
Orbital elements:
2024 FZ1                                                 Earth MOID = 0.2063 AU
Epoch 2024 Mar. 31.0 TT = JDT 2460400.5                 Bell                    
M   8.04069              (2000.0)            P               Q                  
n   0.47196066     Peri.  180.10316     -0.99772528     -0.06649195             
a   1.6337998      Node   356.03290     +0.06196286     -0.83976101             
e   0.2646603      Incl.    9.22812     +0.02654949     -0.53886944             
P   2.09           H   24.57          G   0.15           U   9                  
Residuals in seconds of arc
240317 F51  0.1-  0.2+    240317 F51  0.0   0.1-    240319 T12  0.1+  0.1-
240317 F51  0.1+  0.1+    240318 291  0.2+  0.3+    240319 T12  0.2-  0.1+
240317 F51  0.2-  0.1-    240318 291  0.2+  0.1-
240317 F51  0.1-  0.1-    240318 291  0.4+  0.4-
Ephemeris:
2024 FZ1                 a,e,i = 1.63, 0.26, 9                   q = 1.2014
Date    TT    R. A. (2000) Decl.     Delta      r    Elong.  Phase     V
2024 02 20    12 35 19.4 +11 15 16   0.2667  1.2155   144.5    28.2    23.4
...
2024 03 06    12 35 46.8 +02 17 38   0.2250  1.2031   157.6    18.3    22.7
...
2024 03 14    12 30 34.9 -03 25 53   0.2130  1.2014   165.2    12.2    22.3
...
2024 03 20    12 24 54.2 -07 53 09   0.2094  1.2024   169.6     8.6    22.2
2024 03 21    12 23 51.8 -08 37 23   0.2093  1.2027   170.0     8.3    22.2
2024 03 22    12 22 48.4 -09 21 20   0.2093  1.2031   170.3     8.1    22.1
...
2024 03 28    12 16 18.2 -13 35 37   0.2118  1.2067   169.0     9.1    22.2
...
2024 04 05    12 08 13.4 -18 33 43   0.2221  1.2144   162.8    14.1    22.5
...
2024 04 20    12 00 22.2 -25 07 55   0.2602  1.2374   150.3    23.7    23.2
M. P. C. Staff               (C) Copyright 2024 MPC           M.P.E.C. 2024-F64
    
    
More information about the Iaude
mailing list